Location: Bratsk-Energetik
(56.3300°N, 101.7600°E)
Time: 23:58:01
(UTC+08:00)

ISS - Pass Details

Date: 14 May 2021
Orbit: 417 x 422 km, 51.6° (Epoch: 13 June)

Event Time Altitude Azimuth Distance (km) Brightness Sun altitude
Exits shadow 02:39:17 10° 255° (WSW) 1,490 -1.3 -12.7°
Maximum altitude 02:42:20 34° 189° (S) 716 -3.1 -12.6°
Drops below altitude 10° 02:45:27 10° 123° (ESE) 1,507 -1.0 -12.4°
Sets 02:47:39 0° 114° (ESE) 2,371 0.1 -12.3°
